Weather History for KPUB - May, 2013

Change the Weather History Date:

Saturday, May 11, 2013

  Actual Average Record
Temperature  
Mean Temperature 57 °F 59 °F  
Max Temperature 69 °F 75 °F 95 °F (1962)
Min Temperature 45 °F 43 °F 29 °F (1946)
Degree Days  
Heating Degree Days 8 7  
Month to date heating degree days 166 89  
Since 1 July heating degree days 5679 5529  
Cooling Degree Days 0 1  
Month to date cooling degree days 0 2  
Year to date cooling degree days 1 4  
Growing Degree Days 10 (Base 50)    
Moisture  
Dew Point 38 °F    
Average Humidity 51    
Maximum Humidity 76    
Minimum Humidity 25    
Precipitation  
Precipitation T in 0.05 in 1.09 in (1928)
Month to date precipitation 0.67 0.55  
Year to date precipitation 1.87 3.53  
Snow  
Snow 0.00 in 0.00 in 3.10 in (1946)
Month to date snowfall 0.6 0.4  
Since 1 July snowfall 24.4 31.7  
Snow Depth 0.00 in    
Sea Level Pressure  
Sea Level Pressure 30.24 in    
Wind  
Wind Speed 9 mph (North)    
Max Wind Speed 26 mph    
Max Gust Speed 33 mph    
Visibility 10 miles    
Events Rain    
T = Trace of Precipitation, MM = Missing Value Source: NWS Daily Summary

Daily Weather History Graph

Daily Weather History Graph

Search for Another Location

Airport or City:

Trip Planner

Search our weather history database for the weather conditions in past years. The results will help you decide how hot, cold, wet, or windy it might be!

Date:

Astronomy

May. 11, 2013 Rise Set
Actual Time 5:50 AM MDT 7:58 PM MDT
Civil Twilight 5:20 AM MDT 8:28 PM MDT
Nautical Twilight 4:45 AM MDT 9:04 PM MDT
Astronomical Twilight 4:06 AM MDT 9:43 PM MDT
Moon 7:00 AM MDT (5/11) 9:40 PM MDT (5/11)
Length of Visible Light 15h 07m
Length of Day
14h 08m
Waxing Crescent, 3% of the Moon is Illuminated
May 11
Waxing Crescent
May 17
First Quarter
May 24
Full
May 31
Last Quarter
Jun 8
New

Hourly Weather History & Observations

Time (MDT) Temp. Windchill Dew Point Humidity Pressure Visibility Wind Dir Wind Speed Gust Speed Precip Events Conditions
12:53 AM 50.0 °F - 41.0 °F 71% 30.20 in 10.0 mi NW 10.4 mph - N/A   Clear
1:53 AM 46.9 °F - 39.9 °F 77% 30.21 in 10.0 mi West 9.2 mph - N/A   Clear
2:53 AM 48.0 °F - 39.0 °F 71% 30.23 in 10.0 mi Variable 3.5 mph - N/A   Partly Cloudy
3:53 AM 46.0 °F 42.5 °F 39.0 °F 76% 30.24 in 10.0 mi WSW 6.9 mph - N/A   Clear
4:53 AM 50.0 °F - 37.0 °F 61% 30.23 in 10.0 mi North 19.6 mph - N/A   Clear
5:02 AM 50.0 °F - 37.4 °F 62% 30.32 in 10.0 mi North 20.7 mph - N/A   Partly Cloudy
5:53 AM 51.1 °F - 37.9 °F 61% 30.24 in 10.0 mi North 23.0 mph 29.9 mph N/A   Overcast
6:53 AM 52.0 °F - 39.0 °F 61% 30.27 in 10.0 mi North 23.0 mph 29.9 mph N/A   Mostly Cloudy
7:53 AM 55.0 °F - 39.0 °F 55% 30.32 in 10.0 mi NNE 9.2 mph 19.6 mph N/A   Scattered Clouds
8:53 AM 57.9 °F - 39.9 °F 51% 30.34 in 10.0 mi ENE 12.7 mph - N/A   Scattered Clouds
9:53 AM 57.9 °F - 39.9 °F 51% 30.34 in 10.0 mi East 5.8 mph 17.3 mph N/A   Mostly Cloudy
10:53 AM 57.9 °F - 39.0 °F 49% 30.34 in 10.0 mi SSE 9.2 mph - N/A   Scattered Clouds
11:53 AM 62.1 °F - 37.9 °F 41% 30.32 in 10.0 mi SE 9.2 mph 17.3 mph N/A   Partly Cloudy
12:53 PM 63.0 °F - 37.0 °F 38% 30.29 in 10.0 mi Calm Calm - N/A   Clear
1:53 PM 66.0 °F - 37.9 °F 36% 30.26 in 10.0 mi Variable 6.9 mph 19.6 mph N/A   Clear
2:53 PM 68.0 °F - 36.0 °F 31% 30.23 in 10.0 mi South 10.4 mph - N/A   Clear
3:53 PM 68.0 °F - 34.0 °F 28% 30.20 in 10.0 mi SSW 8.1 mph - N/A   Partly Cloudy
4:53 PM 68.0 °F - 34.0 °F 28% 30.16 in 10.0 mi SSW 9.2 mph - N/A   Clear
5:53 PM 69.1 °F - 32.0 °F 25% 30.14 in 10.0 mi SSE 8.1 mph - N/A   Clear
6:53 PM 64.0 °F - 37.9 °F 38% 30.17 in 10.0 mi NNE 10.4 mph - 0.00 in Rain Light Rain
7:53 PM 62.1 °F - 37.0 °F 39% 30.16 in 10.0 mi WNW 6.9 mph - 0.00 in   Clear
8:53 PM 57.0 °F - 37.9 °F 49% 30.19 in 10.0 mi Calm Calm - N/A   Clear
9:53 PM 55.4 °F - 39.2 °F 54% 30.30 in 10.0 mi WNW 4.6 mph - N/A   Clear
10:53 PM 54.0 °F - 39.9 °F 59% 30.22 in 10.0 mi WNW 3.5 mph - N/A   Scattered Clouds
11:41 PM 55.4 °F - 39.2 °F 54% 30.28 in 10.0 mi ESE 8.1 mph - N/A   Partly Cloudy
11:53 PM 53.1 °F - 39.0 °F 59% 30.18 in 10.0 mi NE 3.5 mph - N/A   Clear